This is the latest recevied weather packets stored in our database for station/object N6GPM. If no packets are shown the sender has not sent any weather packets the latest 1 day(s).
| Time | Temp. | Humidity | Pressure | Rain* | Wind** | Luminosity | Snow |
|---|---|---|---|---|---|---|---|
| 1777997667 | 11.67° C | 81% | 1017.7 hPa | 0 mm | 2.68 m/s, 289° | 534 W/m² | - |
| 1777997365 | 12.22° C | 84% | 1017.7 hPa | 0 mm | 2.24 m/s, 282° | 312 W/m² | - |
| 1777997063 | 11.67° C | 85% | 1017.6 hPa | 0 mm | 1.79 m/s, 284° | 285 W/m² | - |
| 1777996759 | 11.11° C | 87% | 1017.6 hPa | 0 mm | 0 m/s | 313 W/m² | - |
| 1777996455 | 11.11° C | 88% | 1017.5 hPa | 0 mm | 1.79 m/s, 290° | 215 W/m² | - |
| 1777996152 | 10.56° C | 90% | 1017.3 hPa | 0 mm | 0.89 m/s, 262° | 245 W/m² | - |
| 1777995848 | 10.56° C | 92% | 1017.4 hPa | 0 mm | 2.68 m/s, 279° | 222 W/m² | - |
| 1777995544 | 10.56° C | 93% | 1017.3 hPa | 0 mm | 1.34 m/s, 283° | 456 W/m² | - |
| 1777995242 | 10.56° C | 94% | 1017.2 hPa | 0 mm | 1.79 m/s, 290° | 235 W/m² | - |
| 1777994939 | 10° C | 95% | 1017 hPa | 0 mm | 1.79 m/s, 281° | 191 W/m² | - |
| 1777994635 | 10° C | 95% | 1017.2 hPa | 0 mm | 2.68 m/s, 248° | 171 W/m² | - |
| 1777994329 | 10° C | 95% | 1017.3 hPa | 0 mm | 3.58 m/s, 268° | 180 W/m² | - |
| 1777994027 | 10.56° C | 95% | 1017.2 hPa | 0 mm | 1.79 m/s, 254° | 183 W/m² | - |
| 1777993723 | 10° C | 95% | 1017.2 hPa | 0 mm | 2.24 m/s, 270° | 152 W/m² | - |
| 1777993420 | 10° C | 95% | 1016.9 hPa | 0 mm | 3.13 m/s, 233° | 147 W/m² | - |
| 1777993115 | 10.56° C | 96% | 1017 hPa | 0 mm | 0.45 m/s, 289° | 133 W/m² | - |
| 1777992813 | 10° C | 96% | 1016.9 hPa | 0 mm | 1.79 m/s, 267° | 131 W/m² | - |
| 1777992511 | 10° C | 96% | 1017 hPa | 0 mm | 3.13 m/s, 283° | 124 W/m² | - |
| 1777992209 | 10° C | 96% | 1016.9 hPa | 0 mm | 1.34 m/s, 269° | 128 W/m² | - |
| 1777991906 | 10° C | 96% | 1016.9 hPa | 0 mm | 0 m/s | 111 W/m² | - |
| 1777991603 | 10° C | 96% | 1016.9 hPa | 0 mm | 0 m/s | 104 W/m² | - |
| 1777991300 | 10° C | 96% | 1016.7 hPa | 0 mm | 0 m/s | 91 W/m² | - |
| 1777990998 | 10° C | 96% | 1016.8 hPa | 0 mm | 0 m/s | 89 W/m² | - |
| 1777990695 | 10° C | 96% | 1016.7 hPa | 0 mm | 0 m/s | 89 W/m² | - |
| 1777990392 | 10° C | 96% | 1016.7 hPa | 0 mm | 1.79 m/s, 268° | 83 W/m² | - |
* Rain latest hour (hover to see other rain measurements)
** Current wind speed in m/s (hover to see current wind gust speed)